TimeCDT,TemperatureF,Dew PointF,Humidity,Sea Level PressureIn,VisibilityMPH,Wind Direction,Wind SpeedMPH,Gust SpeedMPH,PrecipitationIn,Events,Conditions,WindDirDegrees,DateUTC
12:15 AM,30.2,26.6,86,30.28,10.0,South,3.5,-,N/A,,Scattered Clouds,190,2012-10-28 05:15:00
12:35 AM,30.2,26.6,86,30.28,10.0,South,3.5,-,N/A,,Mostly Cloudy,190,2012-10-28 05:35:00
12:55 AM,30.2,26.6,86,30.28,10.0,Calm,Calm,-,N/A,,Overcast,0,2012-10-28 05:55:00
1:15 AM,32.0,26.6,80,30.27,10.0,SSE,3.5,-,N/A,,Overcast,150,2012-10-28 06:15:00
1:35 AM,33.8,26.6,75,30.27,10.0,SSE,3.5,-,N/A,,Overcast,150,2012-10-28 06:35:00
1:55 AM,33.8,26.6,75,30.27,10.0,SSE,4.6,-,N/A,,Overcast,150,2012-10-28 06:55:00
2:15 AM,33.8,28.4,81,30.27,10.0,SSE,4.6,-,N/A,,Overcast,150,2012-10-28 07:15:00
2:35 AM,33.8,26.6,75,30.27,10.0,SSE,5.8,-,N/A,,Overcast,150,2012-10-28 07:35:00
2:55 AM,33.8,26.6,75,30.27,10.0,SSE,5.8,-,N/A,,Overcast,150,2012-10-28 07:55:00
3:15 AM,33.8,26.6,75,30.26,10.0,SE,5.8,-,N/A,,Overcast,140,2012-10-28 08:15:00
3:35 AM,33.8,26.6,75,30.26,10.0,SSE,5.8,-,N/A,,Overcast,150,2012-10-28 08:35:00
3:55 AM,33.8,26.6,75,30.25,10.0,SSE,6.9,-,N/A,,Overcast,150,2012-10-28 08:55:00
4:15 AM,33.8,28.4,81,30.25,10.0,SSE,5.8,-,N/A,,Overcast,150,2012-10-28 09:15:00
4:35 AM,33.8,28.4,81,30.25,10.0,SSE,5.8,-,N/A,,Mostly Cloudy,150,2012-10-28 09:35:00
4:55 AM,33.8,28.4,81,30.25,10.0,SSE,4.6,-,N/A,,Mostly Cloudy,150,2012-10-28 09:55:00
5:15 AM,33.8,28.4,81,30.25,10.0,SSE,6.9,-,N/A,,Overcast,150,2012-10-28 10:15:00
5:35 AM,33.8,28.4,81,30.25,10.0,SSE,4.6,-,N/A,,Overcast,150,2012-10-28 10:35:00
5:55 AM,33.8,28.4,81,30.25,10.0,SSE,4.6,-,N/A,,Overcast,160,2012-10-28 10:55:00
6:15 AM,33.8,28.4,81,30.25,10.0,SSE,4.6,-,N/A,,Overcast,160,2012-10-28 11:15:00
6:35 AM,33.8,28.4,81,30.25,10.0,SSE,5.8,-,N/A,,Overcast,160,2012-10-28 11:35:00
6:55 AM,33.8,28.4,81,30.25,10.0,SSE,4.6,-,N/A,,Mostly Cloudy,150,2012-10-28 11:55:00
7:15 AM,32.0,28.4,87,30.26,10.0,SSE,5.8,-,N/A,,Scattered Clouds,150,2012-10-28 12:15:00
7:35 AM,32.0,26.6,80,30.26,10.0,SSE,4.6,-,N/A,,Clear,150,2012-10-28 12:35:00
7:55 AM,30.2,26.6,86,30.27,10.0,SSE,3.5,-,N/A,,Clear,150,2012-10-28 12:55:00
8:15 AM,30.2,26.6,86,30.27,10.0,South,3.5,-,N/A,,Clear,170,2012-10-28 13:15:00
8:35 AM,30.2,26.6,86,30.28,10.0,SSE,5.8,-,N/A,,Clear,160,2012-10-28 13:35:00
8:55 AM,32.0,28.4,87,30.28,10.0,SSE,4.6,-,N/A,,Clear,160,2012-10-28 13:55:00
9:15 AM,33.8,28.4,81,30.28,10.0,SSE,4.6,-,N/A,,Clear,160,2012-10-28 14:15:00
9:35 AM,35.6,28.4,75,30.28,10.0,South,8.1,-,N/A,,Clear,170,2012-10-28 14:35:00
9:55 AM,37.4,28.4,70,30.27,10.0,South,10.4,-,N/A,,Clear,180,2012-10-28 14:55:00
10:15 AM,37.4,28.4,70,30.27,10.0,South,12.7,-,N/A,,Clear,180,2012-10-28 15:15:00
10:35 AM,39.2,28.4,65,30.27,10.0,South,12.7,-,N/A,,Clear,180,2012-10-28 15:35:00
10:55 AM,41.0,28.4,61,30.27,10.0,South,15.0,-,N/A,,Clear,190,2012-10-28 15:55:00
11:15 AM,42.8,26.6,53,30.26,10.0,South,18.4,21.9,N/A,,Clear,190,2012-10-28 16:15:00
11:35 AM,42.8,28.4,57,30.26,10.0,South,15.0,-,N/A,,Clear,180,2012-10-28 16:35:00
12:15 PM,44.6,28.4,53,30.24,10.0,South,16.1,20.7,N/A,,Clear,190,2012-10-28 17:15:00
12:35 PM,44.6,28.4,53,30.24,10.0,South,15.0,20.7,N/A,,Clear,190,2012-10-28 17:35:00
12:55 PM,46.4,28.4,50,30.23,10.0,South,12.7,18.4,N/A,,Clear,180,2012-10-28 17:55:00
1:15 PM,46.4,28.4,50,30.22,10.0,South,12.7,-,N/A,,Clear,170,2012-10-28 18:15:00
1:35 PM,46.4,28.4,50,30.22,10.0,South,10.4,19.6,N/A,,Clear,170,2012-10-28 18:35:00
1:55 PM,46.4,28.4,50,30.22,10.0,South,17.3,20.7,N/A,,Clear,190,2012-10-28 18:55:00
2:15 PM,48.2,28.4,46,30.21,10.0,South,15.0,19.6,N/A,,Clear,170,2012-10-28 19:15:00
2:35 PM,48.2,28.4,46,30.20,10.0,South,17.3,24.2,N/A,,Clear,180,2012-10-28 19:35:00
2:55 PM,48.2,28.4,46,30.18,10.0,SSE,15.0,20.7,N/A,,Clear,160,2012-10-28 19:55:00
3:15 PM,48.2,28.4,46,30.19,10.0,South,13.8,-,N/A,,Clear,180,2012-10-28 20:15:00
3:35 PM,48.2,28.4,46,30.18,10.0,South,10.4,19.6,N/A,,Clear,170,2012-10-28 20:35:00
3:55 PM,48.2,28.4,46,30.18,10.0,South,12.7,18.4,N/A,,Clear,170,2012-10-28 20:55:00
4:15 PM,48.2,28.4,46,30.18,10.0,South,12.7,-,N/A,,Scattered Clouds,180,2012-10-28 21:15:00
4:35 PM,48.2,28.4,46,30.18,10.0,South,13.8,17.3,N/A,,Scattered Clouds,180,2012-10-28 21:35:00
4:55 PM,48.2,28.4,46,30.18,10.0,South,13.8,18.4,N/A,,Clear,180,2012-10-28 21:55:00
5:15 PM,48.2,28.4,46,30.18,10.0,SSE,10.4,16.1,N/A,,Scattered Clouds,160,2012-10-28 22:15:00
5:35 PM,46.4,28.4,50,30.17,10.0,South,10.4,-,N/A,,Scattered Clouds,170,2012-10-28 22:35:00
5:55 PM,46.4,30.2,53,30.17,10.0,SSE,8.1,-,N/A,,Clear,160,2012-10-28 22:55:00
6:15 PM,44.6,30.2,57,30.18,10.0,SSE,5.8,-,N/A,,Clear,150,2012-10-28 23:15:00
6:35 PM,42.8,30.2,61,30.18,10.0,SSE,8.1,-,N/A,,Scattered Clouds,150,2012-10-28 23:35:00
6:55 PM,42.8,30.2,61,30.19,10.0,SSE,6.9,-,N/A,,Mostly Cloudy,150,2012-10-28 23:55:00
7:15 PM,42.8,30.2,61,30.19,10.0,SSE,6.9,-,N/A,,Scattered Clouds,150,2012-10-29 00:15:00
7:35 PM,41.0,30.2,65,30.19,10.0,SE,5.8,-,N/A,,Scattered Clouds,140,2012-10-29 00:35:00
7:55 PM,39.2,30.2,70,30.20,10.0,SE,4.6,-,N/A,,Scattered Clouds,130,2012-10-29 00:55:00
8:15 PM,41.0,30.2,65,30.19,10.0,SE,4.6,-,N/A,,Mostly Cloudy,140,2012-10-29 01:15:00
8:35 PM,41.0,30.2,65,30.19,10.0,SE,5.8,-,N/A,,Overcast,140,2012-10-29 01:35:00
8:55 PM,41.0,30.2,65,30.19,10.0,SE,8.1,-,N/A,,Scattered Clouds,140,2012-10-29 01:55:00
9:15 PM,41.0,30.2,65,30.19,10.0,SSE,10.4,-,N/A,,Mostly Cloudy,150,2012-10-29 02:15:00
9:35 PM,41.0,30.2,65,30.19,10.0,SSE,9.2,-,N/A,,Overcast,150,2012-10-29 02:35:00
9:55 PM,41.0,30.2,65,30.19,10.0,SSE,6.9,-,N/A,,Overcast,150,2012-10-29 02:55:00
10:35 PM,39.2,30.2,70,30.20,10.0,SE,6.9,-,N/A,,Overcast,140,2012-10-29 03:35:00
10:55 PM,39.2,30.2,70,30.21,10.0,SE,4.6,-,N/A,,Overcast,140,2012-10-29 03:55:00
11:15 PM,39.2,30.2,70,30.21,10.0,SE,5.8,-,N/A,,Overcast,140,2012-10-29 04:15:00
11:35 PM,39.2,30.2,70,30.21,10.0,SSE,8.1,-,N/A,,Overcast,150,2012-10-29 04:35:00
11:55 PM,39.2,30.2,70,30.21,10.0,SSE,9.2,-,N/A,,Overcast,150,2012-10-29 04:55:00